Mount Pleasant, TN

9:14 AM CST on February 21, 2017 (GMT -0600)
Maury County

Weather History for KMRC - September, 2013

Change the Weather History Date:

Thursday, September 12, 2013

  Actual Average (KBNA) Record (KBNA)
Temperature  
Mean Temperature 83 °F -  
Max Temperature 91 °F 83 °F 96 °F (1939)
Min Temperature 75 °F 61 °F 44 °F (1940)
Cooling Degree Days 18    
Growing Degree Days 33 (Base 50)    
Moisture  
Dew Point 75 °F    
Average Humidity 76    
Maximum Humidity 100    
Minimum Humidity 52    
Precipitation  
Precipitation 0.00 in - - ()
Sea Level Pressure  
Sea Level Pressure 30.02 in    
Wind  
Wind Speed 1 mph (WNW)    
Max Wind Speed 9 mph    
Max Gust Speed -    
Visibility 9 miles    
Events      
Averages and records for this station are not official NWS values.
T = Trace of Precipitation, MM = Missing Value Source: NWS Daily Summary

Daily Weather History Graph

Daily Weather History Graph

Search for Another Location

Airport or City:

Trip Planner

Search our weather history database for the weather conditions in past years. The results will help you decide how hot, cold, wet, or windy it might be!

Date:

Astronomy

Sep. 12, 2013 Rise Set
Actual Time 6:29 AM CDT 6:59 PM CDT
Civil Twilight 6:03 AM CDT 7:25 PM CDT
Nautical Twilight 5:33 AM CDT 7:55 PM CDT
Astronomical Twilight 5:02 AM CDT 8:26 PM CDT
Moon 1:43 PM CDT (9/12) No Moon Set
Length of Visible Light 13h 21m
Length of Day
12h 30m
Waxing Crescent, 50% of the Moon is Illuminated
Sep 12
Waxing Crescent
Sep 12
First Quarter
Sep 19
Full
Sep 26
Last Quarter
Oct 4
New

Hourly Weather History & Observations

Time (CDT) Temp. Heat Index Dew Point Humidity Pressure Visibility Wind Dir Wind Speed Gust Speed Precip Events Conditions
12:35 AM - - - N/A% 30.09 in 7.0 mi Calm Calm - N/A   Clear
12:55 AM - - - N/A% 30.08 in 8.0 mi Calm Calm - N/A   Clear
1:15 AM - - - N/A% 30.08 in 8.0 mi Calm Calm - N/A   Clear
1:35 AM - - - N/A% 30.08 in 7.0 mi Calm Calm - N/A   Clear
1:55 AM - - - N/A% 30.08 in 7.0 mi Calm Calm - N/A   Clear
2:15 AM - - - N/A% 30.08 in 6.0 mi South 3.5 mph - N/A   Clear
2:35 AM - - - N/A% 30.08 in 6.0 mi Calm Calm - N/A   Unknown
2:55 AM - - - N/A% 30.07 in 6.0 mi Calm Calm - N/A   Clear
3:15 AM - - - N/A% 30.07 in 9.0 mi Calm Calm - N/A   Clear
3:35 AM - - - N/A% 30.07 in 7.0 mi Calm Calm - N/A   Unknown
3:55 AM - - - N/A% 30.07 in 7.0 mi Calm Calm - N/A   Clear
4:15 AM - - - N/A% 30.07 in 8.0 mi Calm Calm - N/A   Clear
4:35 AM - - - N/A% 30.07 in 9.0 mi Calm Calm - N/A   Unknown
4:55 AM - - - N/A% 30.07 in 8.0 mi Calm Calm - N/A   Clear
5:15 AM - - - N/A% 30.07 in 6.0 mi Calm Calm - N/A   Unknown
5:35 AM - - - N/A% 30.07 in 8.0 mi Calm Calm - N/A   Mostly Cloudy
5:55 AM - - - N/A% 30.07 in 10.0 mi Calm Calm - N/A   Unknown
6:15 AM - - - N/A% 30.07 in 10.0 mi Calm Calm - N/A   Unknown
6:35 AM - - - N/A% 30.07 in 9.0 mi Calm Calm - N/A   Unknown
6:55 AM - - - N/A% 30.08 in 10.0 mi Calm Calm - N/A   Scattered Clouds
7:15 AM - - - N/A% 30.08 in 9.0 mi Calm Calm - N/A   Mostly Cloudy
7:35 AM - - - N/A% 30.08 in 10.0 mi Calm Calm - N/A   Unknown
7:55 AM - - - N/A% 30.08 in 10.0 mi Calm Calm - N/A   Scattered Clouds
8:15 AM 77.0 °F - 77.0 °F 100% 30.08 in 9.0 mi SW 3.5 mph - N/A   Unknown
8:35 AM 78.8 °F - 78.8 °F 100% 30.08 in 10.0 mi WSW 4.6 mph - N/A   Unknown
8:55 AM 80.6 °F 89.3 °F 80.6 °F 100% 30.08 in 10.0 mi Calm Calm - N/A   Mostly Cloudy
9:15 AM 78.8 °F - 78.8 °F 100% 30.08 in 10.0 mi Calm Calm - N/A   Mostly Cloudy
9:35 AM 80.6 °F 88.1 °F 78.8 °F 94% 30.08 in 10.0 mi WSW 5.8 mph - N/A   Clear
9:55 AM 84.2 °F 92.3 °F 75.2 °F 74% 30.08 in 10.0 mi West 4.6 mph - N/A   Clear
10:15 AM 86.0 °F 93.4 °F 73.4 °F 66% 30.08 in 10.0 mi WSW 9.2 mph - N/A   Clear
10:35 AM 87.8 °F 95.6 °F 73.4 °F 62% 30.07 in 10.0 mi WSW 9.2 mph - N/A   Clear
10:55 AM 87.8 °F 93.8 °F 71.6 °F 58% 30.07 in 10.0 mi Variable 5.8 mph - N/A   Partly Cloudy
11:15 AM 87.8 °F 95.6 °F 73.4 °F 62% 30.07 in 10.0 mi WNW 5.8 mph - N/A   Clear
11:35 AM 87.8 °F 95.6 °F 73.4 °F 62% 30.07 in 10.0 mi Variable 3.5 mph - N/A   Mostly Cloudy
11:55 AM 87.8 °F 95.6 °F 73.4 °F 62% 30.06 in 10.0 mi Variable 4.6 mph - N/A   Scattered Clouds
12:15 PM 89.6 °F 96.2 °F 71.6 °F 55% 30.05 in 10.0 mi Variable 5.8 mph - N/A   Clear
12:35 PM 89.6 °F 96.2 °F 71.6 °F 55% 30.04 in - WNW 5.8 mph - N/A   Unknown
12:55 PM 89.6 °F 96.2 °F 71.6 °F 55% 30.03 in 10.0 mi Variable 4.6 mph - N/A   Scattered Clouds
1:15 PM 87.8 °F 93.8 °F 71.6 °F 58% 30.02 in 10.0 mi Calm Calm - N/A   Partly Cloudy
1:35 PM 89.6 °F 96.2 °F 71.6 °F 55% 30.01 in 10.0 mi NW 3.5 mph - N/A   Partly Cloudy
1:55 PM 91.4 °F 98.4 °F 71.6 °F 52% 30.00 in 10.0 mi Variable 4.6 mph - N/A   Partly Cloudy
2:15 PM 91.4 °F 98.4 °F 71.6 °F 52% 29.99 in 10.0 mi Variable 4.6 mph - N/A   Clear
2:35 PM 91.4 °F 98.4 °F 71.6 °F 52% 29.97 in 10.0 mi Variable 4.6 mph - N/A   Partly Cloudy
2:55 PM 89.6 °F 96.2 °F 71.6 °F 55% 29.96 in 10.0 mi Variable 4.6 mph - N/A   Scattered Clouds
3:15 PM 89.6 °F 98.2 °F 73.4 °F 59% 29.96 in 10.0 mi NNW 4.6 mph - N/A   Partly Cloudy
3:35 PM 89.6 °F 96.2 °F 71.6 °F 55% 29.95 in 10.0 mi North 3.5 mph - N/A   Partly Cloudy
3:55 PM 89.6 °F 96.2 °F 71.6 °F 55% 29.95 in 10.0 mi Variable 3.5 mph - N/A   Scattered Clouds
4:15 PM 89.6 °F 96.2 °F 71.6 °F 55% 29.95 in 10.0 mi Variable 5.8 mph - N/A   Partly Cloudy
4:35 PM 87.8 °F 95.6 °F 73.4 °F 62% 29.95 in 10.0 mi NW 4.6 mph - N/A   Mostly Cloudy
4:55 PM 86.0 °F 95.1 °F 75.2 °F 70% 29.95 in 10.0 mi NNW 5.8 mph - N/A   Scattered Clouds
5:15 PM 84.2 °F 92.3 °F 75.2 °F 74% 29.95 in 10.0 mi Calm Calm - N/A   Clear
5:35 PM 84.2 °F 94.1 °F 77.0 °F 79% 29.95 in 10.0 mi NNW 3.5 mph - N/A   Partly Cloudy
5:55 PM 84.2 °F 96.1 °F 78.8 °F 84% 29.94 in 10.0 mi NNW 3.5 mph - N/A   Mostly Cloudy
6:15 PM 84.2 °F 96.1 °F 78.8 °F 84% 29.94 in 10.0 mi Variable 4.6 mph - N/A   Partly Cloudy
6:35 PM 82.4 °F 94.0 °F 80.6 °F 94% 29.94 in 10.0 mi Calm Calm - N/A   Clear
6:55 PM 82.4 °F 96.1 °F 82.4 °F 100% 29.94 in 10.0 mi Calm Calm - N/A   Clear
7:15 PM 80.6 °F 89.3 °F 80.6 °F 100% 29.95 in 10.0 mi Calm Calm - N/A   Clear
7:35 PM 80.6 °F 89.3 °F 80.6 °F 100% 29.95 in 10.0 mi Calm Calm - N/A   Clear
7:55 PM 78.8 °F - 78.8 °F 100% 29.96 in 10.0 mi Calm Calm - N/A   Clear
8:15 PM 78.8 °F - 78.8 °F 100% 29.96 in 10.0 mi WSW 3.5 mph - N/A   Clear
8:35 PM 78.8 °F - 78.8 °F 100% 29.97 in 10.0 mi Calm Calm - N/A   Clear
8:55 PM 77.0 °F - 77.0 °F 100% 29.97 in 10.0 mi Calm Calm - N/A   Clear
9:15 PM 75.2 °F - 75.2 °F 100% 29.98 in 10.0 mi Calm Calm - N/A   Clear
9:35 PM 75.2 °F - 75.2 °F 100% 29.97 in 10.0 mi Calm Calm - N/A   Clear
9:55 PM - - - N/A% 29.98 in 8.0 mi Calm Calm - N/A   Clear
10:15 PM - - - N/A% 29.98 in 6.0 mi Calm Calm - N/A   Partly Cloudy
10:35 PM - - - N/A% 29.98 in 4.0 mi Calm Calm - N/A   Partly Cloudy
10:55 PM - - - N/A% 29.98 in 6.0 mi Calm Calm - N/A   Clear
11:15 PM - - - N/A% 29.98 in 7.0 mi Calm Calm - N/A   Partly Cloudy
11:35 PM - - - N/A% 29.97 in 6.0 mi Calm Calm - N/A   Mostly Cloudy
11:55 PM - - - N/A% 29.97 in 7.0 mi Calm Calm - N/A   Mostly Cloudy